This is the latest recevied weather packets stored in our database for station/object KQ4OSL. If no packets are shown the sender has not sent any weather packets the latest 10 day(s).
| Time | Temp. | Humidity | Pressure | Rain* | Wind** | Luminosity | Snow |
|---|---|---|---|---|---|---|---|
| 1777415911 | 16.67° C | 98% | 1019.9 hPa | 0 mm | - | 42 W/m² | - |
| 1777415607 | 16.67° C | 98% | 1020 hPa | 0 mm | - | 39 W/m² | - |
| 1777415303 | 16.67° C | 98% | 1020.2 hPa | 0 mm | - | 44 W/m² | - |
| 1777414998 | 16.67° C | 98% | 1020.1 hPa | 0 mm | - | 50 W/m² | - |
| 1777414697 | 16.67° C | 98% | 1019.6 hPa | 0 mm | - | 49 W/m² | - |
| 1777414394 | 16.67° C | 98% | 1020.1 hPa | 0 mm | - | 42 W/m² | - |
| 1777414093 | 16.67° C | 98% | 1020.1 hPa | 0 mm | - | 49 W/m² | - |
| 1777413789 | 16.11° C | 98% | 1020.1 hPa | 0 mm | - | 54 W/m² | - |
| 1777413489 | 16.67° C | 98% | 1020.1 hPa | 0 mm | - | 42 W/m² | - |
| 1777413186 | 16.67° C | 98% | 1020.1 hPa | 0 mm | - | 39 W/m² | - |
| 1777412881 | 16.67° C | 98% | 1020.2 hPa | 0 mm | - | 52 W/m² | - |
| 1777412575 | 16.67° C | 97% | 1020.3 hPa | 0 mm | - | 67 W/m² | - |
| 1777412272 | 16.67° C | 98% | 1020.2 hPa | 0 mm | - | 70 W/m² | - |
| 1777411969 | 16.67° C | 98% | 1020 hPa | 0 mm | - | 71 W/m² | - |
| 1777411667 | 16.67° C | 98% | 1020.3 hPa | 0 mm | - | 72 W/m² | - |
| 1777411362 | 16.67° C | 98% | 1020.6 hPa | 0 mm | - | 93 W/m² | - |
| 1777411062 | 16.11° C | 98% | 1020.5 hPa | 0 mm | - | 46 W/m² | - |
| 1777410751 | 16.67° C | 98% | 1020.7 hPa | 0 mm | - | 49 W/m² | - |
| 1777410445 | 16.67° C | 98% | 1020.4 hPa | 0 mm | - | 76 W/m² | - |
| 1777410144 | 16.67° C | 98% | 1020.7 hPa | 0 mm | - | 83 W/m² | - |
| 1777409839 | 16.67° C | 98% | 1020.8 hPa | 0 mm | - | 101 W/m² | - |
| 1777409535 | 16.67° C | 98% | 1021 hPa | 0 mm | - | 90 W/m² | - |
| 1777409231 | 16.67° C | 98% | 1021.1 hPa | 0 mm | - | 71 W/m² | - |
| 1777408927 | 16.67° C | 98% | 1021.3 hPa | 0 mm | - | 76 W/m² | - |
| 1777408624 | 16.67° C | 98% | 1021 hPa | 0 mm | - | 72 W/m² | - |
* Rain latest hour (hover to see other rain measurements)
** Current wind speed in m/s (hover to see current wind gust speed)